Overview Statistics Trail Chart Weather Telemetry Raw packets
 

This is the latest recevied weather packets stored in our database for station/object DL0BB-10. If no packets are shown the sender has not sent any weather packets the latest 10 day(s).

<< 29 30 31 32 33 34 35 >>
Time Temp. Humidity Pressure Rain* Wind** Luminosity Snow
1788017378 27.78° C 39% 1015.1 hPa - - - -
1788016478 27.22° C 41% 1015.3 hPa - - - -
1788015577 26.67° C 41% 1015.4 hPa - - - -
1788014681 27.22° C 41% 1015.4 hPa - - - -
1788013781 27.78° C 39% 1015.5 hPa - - - -
1788012881 26.67° C 41% 1015.6 hPa - - - -
1788011981 26.67° C 41% 1015.8 hPa - - - -
1788011080 26.67° C 41% 1015.8 hPa - - - -
1788010180 27.22° C 39% 1015.6 hPa - - - -
1788009280 26.67° C 42% 1015.9 hPa - - - -
1788008380 26.67° C 41% 1016 hPa - - - -
1788007480 26.67° C 40% 1016.1 hPa - - - -
1788006580 27.22° C 40% 1016 hPa - - - -
1788005680 26.11° C 42% 1016.3 hPa - - - -
1788004780 26.67° C 41% 1016.2 hPa - - - -
1788003880 26.67° C 40% 1016.3 hPa - - - -
1788002979 27.22° C 39% 1016.3 hPa - - - -
1788002079 26.11° C 41% 1016.5 hPa - - - -
1788001179 26.11° C 41% 1016.7 hPa - - - -
1788000279 26.67° C 40% 1016.6 hPa - - - -
1787999379 26.67° C 40% 1016.7 hPa - - - -
1787998479 25.56° C 41% 1017 hPa - - - -
1787997578 25.56° C 41% 1017 hPa - - - -
1787996678 26.11° C 39% 1017.1 hPa - - - -
1787995778 26.11° C 40% 1017.2 hPa - - - -

* Rain since midnight (hover to see other rain measurements)
** Current wind speed in m/s (hover to see current wind gust speed)